[[{"header":{"parameterUnit":"m.s-1","parameterCategory":1,"la1":30.2991,"la2":30.254,"lo1":-89.0895,"lo2":-89.0444,"dy":0.0017,"dx":0.0017,"nx":28,"ny":28,"refTime":"2026-02-16T03:00:00:Z","depth":0,"parameterNumber":2,"parameterNumberName":"U-component_of_WINDS"},"data":[0,0,0,0,0,0,0,0,0,0,0,0,0,0,0,0,0,0,0,0,0,0,0,0,0,0,0,0,0,0,0,0,0,0,0,0,0,0,0,0,0,0,0,0,0,0,0,0,0,0,0,0,0,0,0,0,0,0,0.1088,0.1088,0,0.1073,0.1072,0.1072,0.1077,0.1078,0.1078,0.1078,0.1061,0.106,0.106,0,0,0,0,0,0,0,0,0,0,0,0,0,0.1119,0.1119,0.1088,0.1088,0.1088,0.1073,0.1072,0.1072,0.1077,0.1078,0.1078,0.1078,0.1061,0.106,0.1059,0,0,0,0,0,0,0,0,0,0,0,0,0,0.1105,0.1119,0.1088,0.1089,0.1088,0.1073,0.1072,0.1072,0.1077,0.1078,0.1078,0.1079,0.1062,0.106,0.1059,0.1042,0,0,0.1056,0.1055,0,0,0,0,0,0,0,0,0.1106,0.1104,0.1089,0.1089,0.1088,0.1077,0.1077,0.1062,0.1077,0.1081,0.1078,0.1079,0.1066,0.1065,0.106,0.1041,0.104,0.1056,0.1055,0.1054,0.1054,0,0,0,0,0,0,0,0.1107,0.1105,0.1082,0.1089,0.1088,0.1088,0.1087,0.1074,0.1071,0.1081,0.1081,0.108,0.1066,0.1062,0.106,0.104,0.1056,0.1055,0.1054,0.1054,0.1002,0.1001,0,0,0,0,0,0,0.1108,0.1105,0.1083,0.1082,0.1099,0.1087,0.1086,0.108,0.1071,0.107,0.1079,0.108,0.1063,0.1061,0.1059,0.1036,0.1054,0.1053,0.1053,0.1002,0.1002,0.1001,0,0,0,0,0,0,0.1109,0.1106,0.1083,0.1093,0.1091,0.1086,0.108,0.108,0.1075,0.107,0.1069,0.1075,0.1064,0.1061,0.1045,0.1035,0.1053,0.1052,0.1003,0.1002,0.1001,0.099,0,0,0,0,0,0,0.111,0.1106,0.1101,0.1093,0.109,0.107,0.108,0.1079,0.1073,0.1074,0.1066,0.1065,0.1064,0.1047,0.1044,0.1034,0.1051,0.1004,0.1003,0.1002,0.0991,0.0989,0.0987,0,0,0,0,0,0.1111,0.1099,0.11,0.1098,0.1083,0.107,0.1068,0.1067,0.1073,0.1066,0.1062,0.1065,0.1037,0.1046,0.1042,0.1032,0.1005,0.1003,0.1002,0.0992,0.0989,0.0987,0,0,0,0,0,0,0.1105,0.1098,0.11,0.1085,0.1078,0.1071,0.1063,0.1064,0.1056,0.1057,0.1056,0.1053,0.1037,0.1033,0.1042,0.1012,0.1022,0.1019,0.1016,0.1013,0.101,0.1011,0.105,0,0,0,0,0,0.1102,0.1093,0.1087,0.1075,0.1071,0.1067,0.1062,0.1061,0.1054,0.1051,0.1046,0.1038,0.1027,0.102,0.101,0.0991,0.0987,0.0982,0.0979,0.0978,0.0975,0.0962,0.0958,0.0996,0.0996,0.0996,0,0,0.1096,0.1091,0.1086,0.1073,0.1068,0.1057,0.1065,0.1054,0.1045,0.1049,0.1033,0.1029,0.102,0.1002,0.0994,0.0998,0.0964,0.0976,0.0974,0.0973,0.096,0.0956,0.0953,0.0995,0.0995,0.0995,0,0,0.1079,0.1075,0.1063,0.1057,0.1048,0.1046,0.1042,0.1034,0.1031,0.1016,0.1018,0.1007,0.0989,0.0981,0.0975,0.0952,0.0953,0.0948,0.0936,0.0922,0.0919,0.0917,0.0906,0.0902,0.0946,0.0946,0.0946,0,0.1073,0.1057,0.1057,0.1044,0.1038,0.104,0.1027,0.1021,0.1009,0.1004,0.1009,0.0984,0.0978,0.0957,0.0951,0.0947,0.0941,0.0949,0.092,0.0917,0.0915,0.0904,0.09,0.0946,0.0946,0.0946,0.0946,0,0.1048,0.1037,0.1028,0.1016,0.1008,0.0995,0.0991,0.0983,0.0983,0.0979,0.0961,0.0954,0.0941,0.0936,0.0936,0.0913,0.0916,0.0921,0.0929,0.091,0.09,0.0896,0.0945,0.0945,0.0945,0.0945,0,0,0.1028,0.1014,0.1011,0.1004,0.0993,0.0984,0.097,0.0957,0.0949,0.094,0.0926,0.091,0.0913,0.0906,0.0905,0.0893,0.0871,0.0899,0.0899,0.0892,0.0842,0.0837,0.0832,0.0873,0.0872,0.0871,0.0842,0,0.1009,0.0985,0.0982,0.096,0.0948,0.0949,0.0936,0.0927,0.0923,0.0911,0.0905,0.0892,0.0899,0.0894,0.0883,0.0876,0.0861,0.0879,0.0858,0.0857,0.0858,0.0828,0.0823,0.0796,0.0838,0.0837,0.0837,0,0.0983,0.0973,0.0949,0.0937,0.0932,0.092,0.0906,0.0896,0.0884,0.0881,0.0872,0.0871,0.0854,0.0864,0.084,0.0852,0.0843,0.0838,0.0837,0.0834,0.0845,0.0821,0.0787,0.0782,0.0831,0.0832,0.0832,0,0.0968,0.0948,0.0931,0.0925,0.0911,0.0902,0.0896,0.0885,0.0876,0.0864,0.0857,0.0843,0.0835,0.0823,0.0818,0.0826,0.0792,0.0803,0.0787,0.0787,0.0779,0.0779,0.0741,0.0777,0.0777,0.0777,0.0777,0,0.0946,0.0931,0.0923,0.0912,0.0894,0.0891,0.0873,0.0866,0.0856,0.0842,0.0843,0.0829,0.0824,0.0809,0.0805,0.0783,0.078,0.0776,0.0774,0.0774,0.0775,0.0768,0.0769,0.0776,0.0776,0.0776,0.0776,0,0.0927,0.0921,0.0901,0.0889,0.0885,0.0872,0.0861,0.0849,0.0843,0.0826,0.0821,0.0812,0.0794,0.0788,0.0767,0.0764,0.0737,0.0739,0.0741,0.074,0.0724,0.0725,0.0678,0.0671,0.0714,0.0713,0.0713,0,0.0912,0.09,0.0886,0.0876,0.0869,0.0855,0.0845,0.084,0.083,0.0814,0.0803,0.0785,0.0771,0.0742,0.0733,0.0716,0.0715,0.07,0.0713,0.0712,0.0711,0.0711,0.0708,0.0697,0.0697,0.0696,0.0696,0,0.0886,0.0883,0.087,0.0854,0.0842,0.083,0.0817,0.0809,0.0802,0.079,0.0772,0.076,0.0737,0.0718,0.07,0.0692,0.0691,0.0692,0.0687,0.0686,0.0687,0.0683,0.0732,0.0693,0.0693,0.0694,0.0694,0.0694,0.0867,0.0855,0.0842,0.0826,0.0816,0.0804,0.0791,0.0783,0.0767,0.0748,0.0746,0.0725,0.071,0.0685,0.0676,0.0658,0.0662,0.0656,0.0654,0.0651,0.0649,0.0691,0.0655,0.0655,0.0655,0.0655,0.0655,0,0.0839,0.083,0.0815,0.0797,0.0783,0.0785,0.077,0.0758,0.074,0.0726,0.0711,0.0688,0.0669,0.0657,0.0637,0.0624,0.0623,0.0619,0.0619,0.0616,0.0648,0.0653,0.062,0.062,0.062,0.062,0.062,0.062,0.0823,0.0802,0.0797,0.0769,0.076,0.0739,0.073,0.0718,0.0707,0.068,0.0664,0.0656,0.0642,0.0621,0.0602,0.0599,0.059,0.0585,0.0582,0.0611,0.0615,0.0618,0.0623,0.0584,0.0584,0.0551,0.0551,0.0551]},{"header":{"parameterUnit":"m.s-1","parameterCategory":1,"la1":30.2991,"la2":30.254,"lo1":-89.0895,"lo2":-89.0444,"dy":0.0017,"dx":0.0017,"nx":28,"ny":28,"refTime":"2026-02-16T03:00:00:Z","depth":0,"parameterNumber":3,"parameterNumberName":"V-component_of_WINDS"},"data":[0,0,0,0,0,0,0,0,0,0,0,0,0,0,0,0,0,0,0,0,0,0,0,0,0,0,0,0,0,0,0,0,0,0,0,0,0,0,0,0,0,0,0,0,0,0,0,0,0,0,0,0,0,0,0,0,0,0,1.921,1.9209,0,1.9114,1.9112,1.9111,1.9085,1.9085,1.9086,1.9086,1.8981,1.8978,1.8975,0,0,0,0,0,0,0,0,0,0,0,0,0,1.9366,1.9363,1.921,1.9209,1.9208,1.9114,1.9112,1.9111,1.9084,1.9085,1.9086,1.9087,1.8982,1.8978,1.8974,0,0,0,0,0,0,0,0,0,0,0,0,0,1.9286,1.9362,1.921,1.9183,1.918,1.9114,1.9112,1.9111,1.9084,1.9085,1.9086,1.9087,1.8984,1.8979,1.8974,1.8926,0,0,1.8959,1.8956,0,0,0,0,0,0,0,0,1.9291,1.9281,1.9189,1.9185,1.9181,1.9112,1.9129,1.9049,1.9084,1.912,1.9086,1.9087,1.9024,1.9015,1.8995,1.8921,1.8917,1.8958,1.8955,1.8953,1.8952,0,0,0,0,0,0,0,1.9296,1.9285,1.9172,1.9187,1.9183,1.9174,1.9164,1.9113,1.9068,1.9117,1.9115,1.9104,1.9022,1.9,1.8993,1.8915,1.8958,1.8954,1.8951,1.8949,1.8795,1.8794,0,0,0,0,0,0,1.9307,1.9289,1.9175,1.9169,1.924,1.9171,1.9159,1.9133,1.9069,1.906,1.9104,1.9104,1.9008,1.8998,1.8989,1.8927,1.8953,1.8948,1.8945,1.8796,1.8795,1.8793,0,0,0,0,0,0,1.9311,1.9297,1.9179,1.9229,1.9213,1.9167,1.9138,1.9131,1.9109,1.9059,1.905,1.909,1.9008,1.8996,1.8942,1.8923,1.8946,1.8941,1.8797,1.8796,1.8794,1.8805,0,0,0,0,0,0,1.9315,1.9299,1.9282,1.9228,1.921,1.9135,1.9137,1.9128,1.9102,1.91,1.9044,1.9035,1.9008,1.8949,1.8937,1.8917,1.8938,1.8799,1.8797,1.8795,1.8806,1.8804,1.8802,0,0,0,0,0,1.9321,1.9288,1.9281,1.9267,1.9188,1.9134,1.9124,1.9095,1.91,1.9081,1.9049,1.9037,1.8928,1.8944,1.893,1.8908,1.88,1.8797,1.8795,1.8807,1.8804,1.8802,0,0,0,0,0,0,1.9338,1.928,1.9272,1.9221,1.9183,1.913,1.9106,1.9094,1.9052,1.9052,1.9017,1.9004,1.8952,1.8925,1.8944,1.8858,1.8863,1.8858,1.8877,1.8875,1.8873,1.888,1.8933,0,0,0,0,0,1.9336,1.9299,1.925,1.9209,1.9191,1.9152,1.9127,1.9109,1.9067,1.905,1.9014,1.8972,1.8928,1.89,1.8857,1.8802,1.8788,1.878,1.8778,1.8777,1.8772,1.8739,1.8735,1.8785,1.8785,1.8785,0,0,1.9331,1.9295,1.9273,1.9212,1.918,1.9141,1.9138,1.9097,1.9067,1.9043,1.8991,1.8962,1.8913,1.8859,1.8832,1.8834,1.8755,1.8774,1.8773,1.8769,1.8736,1.8732,1.8727,1.8784,1.8784,1.8784,0,0,1.9302,1.9272,1.9234,1.9203,1.9156,1.913,1.9121,1.9069,1.905,1.8997,1.8979,1.8941,1.8867,1.8833,1.8805,1.8763,1.8749,1.875,1.8739,1.8707,1.8703,1.87,1.8683,1.8677,1.8745,1.8745,1.8745,0,1.9301,1.9243,1.9216,1.9175,1.9148,1.9127,1.9087,1.9057,1.8998,1.8978,1.8982,1.8888,1.8853,1.879,1.8779,1.8758,1.8745,1.8755,1.8707,1.8702,1.8698,1.8682,1.8676,1.8745,1.8745,1.8745,1.8745,0,1.9243,1.9203,1.9178,1.9123,1.9093,1.9053,1.9018,1.899,1.8974,1.8947,1.8892,1.885,1.8798,1.8782,1.8765,1.8715,1.8717,1.8714,1.8719,1.8694,1.8678,1.8672,1.8746,1.8746,1.8746,1.8746,0,0,1.9221,1.9152,1.9143,1.9117,1.9064,1.9031,1.8989,1.894,1.8916,1.8876,1.8838,1.8776,1.8773,1.8742,1.8721,1.8694,1.8661,1.8693,1.8692,1.8688,1.8601,1.8603,1.8597,1.8653,1.8651,1.865,1.8605,0,1.9184,1.9111,1.9085,1.9024,1.8985,1.8965,1.8928,1.889,1.8864,1.8826,1.8796,1.8752,1.8751,1.8732,1.8705,1.8671,1.8643,1.8674,1.8615,1.8613,1.8627,1.8588,1.859,1.855,1.8599,1.8597,1.8597,0,1.9131,1.9091,1.9027,1.8977,1.896,1.8928,1.888,1.8845,1.88,1.8783,1.8749,1.873,1.8683,1.8692,1.8626,1.8648,1.8623,1.8602,1.86,1.8592,1.8603,1.8578,1.8536,1.8529,1.8587,1.8588,1.8588,0,1.912,1.905,1.9002,1.8981,1.8922,1.89,1.8874,1.8831,1.8803,1.876,1.8741,1.8693,1.8667,1.8629,1.8597,1.8607,1.8533,1.854,1.8516,1.8516,1.85,1.8501,1.8452,1.8486,1.8486,1.8486,1.8487,0,1.908,1.9041,1.8996,1.8967,1.8922,1.8892,1.8847,1.882,1.8781,1.8744,1.8724,1.8689,1.865,1.8609,1.8584,1.8532,1.852,1.8503,1.8497,1.8504,1.8506,1.8486,1.8487,1.8485,1.8485,1.8485,1.8486,0,1.9059,1.9028,1.8975,1.8924,1.891,1.8879,1.8834,1.8804,1.8777,1.873,1.8718,1.8674,1.8626,1.8591,1.8527,1.851,1.8454,1.8448,1.847,1.8466,1.8443,1.8446,1.8378,1.8367,1.841,1.841,1.841,0,1.9036,1.9005,1.8952,1.8926,1.8901,1.8861,1.8832,1.88,1.8771,1.8718,1.8693,1.8644,1.8602,1.8525,1.8487,1.8438,1.843,1.841,1.8422,1.8431,1.8427,1.8429,1.8425,1.8407,1.8407,1.8407,1.8407,0,1.8997,1.8983,1.8943,1.8898,1.8865,1.8827,1.8789,1.8769,1.873,1.8698,1.8649,1.8617,1.8553,1.8503,1.8451,1.8422,1.8407,1.8403,1.8395,1.8401,1.8415,1.8406,1.8463,1.8404,1.8405,1.8405,1.8405,1.8405,1.8972,1.8944,1.8902,1.8858,1.8827,1.8791,1.876,1.873,1.8689,1.8635,1.8619,1.8568,1.8522,1.8451,1.8421,1.8379,1.838,1.8368,1.8364,1.8362,1.8361,1.8423,1.8369,1.837,1.837,1.837,1.837,0,1.8931,1.8903,1.8863,1.8811,1.8776,1.8768,1.8725,1.8695,1.8651,1.8612,1.8572,1.8514,1.8466,1.8424,1.8373,1.8348,1.8339,1.8335,1.8336,1.8329,1.8364,1.8376,1.8343,1.8343,1.8343,1.8343,1.8343,1.8343,1.8905,1.8856,1.8837,1.8772,1.8743,1.8694,1.867,1.8637,1.8605,1.8543,1.8503,1.8477,1.8435,1.8381,1.8336,1.8325,1.8306,1.8303,1.829,1.8324,1.8327,1.833,1.834,1.83,1.83,1.8258,1.8257,1.8257]}]]